FW4504 Weather Reports


time (UTC)temp
C
wind
direction
speed
KPH
gust
KPH
rain 1hr
cm
rain 24hr
cm
rain mn
cm
humidity
%
barometer
mb
20260510164600 31 43 3.2 9.7 0.00 0.00 0.00 41 1008.6
20260510164056 31 104 3.2 11.3 0.00 0.00 0.00 41 1008.7
20260510163551 31 148 6.4 11.3 0.00 0.00 0.00 42 1008.8
20260510163050 30 90 1.6 8.0 0.00 0.00 0.00 43 1008.6
20260510162549 30 117 4.8 12.9 0.00 0.00 0.00 42 1008.6
20260510162049 30 109 4.8 12.9 0.00 0.00 0.00 42 1008.7
20260510160542 30 95 3.2 9.7 0.00 0.00 0.00 44 1008.6
20260510160055 30 161 6.4 9.7 0.00 0.00 0.00 45 1008.7
20260510155539 29 95 1.6 9.7 0.00 0.00 0.00 45 1008.6
20260510155038 29 191 3.2 9.7 0.00 0.00 0.00 46 1008.6
20260510154541 29 189 3.2 8.0 0.00 0.00 0.00 46 1008.7
20260510154037 29 144 3.2 11.3 0.00 0.00 0.00 46 1008.6
20260510153535 28 159 4.8 11.3 0.00 0.00 0.00 47 1008.8
20260510153034 28 90 3.2 8.0 0.00 0.00 0.00 48 1008.8
20260510152533 28 121 3.2 8.0 0.00 0.00 0.00 48 1008.8
20260510152032 28 44 0.0 8.0 0.00 0.00 0.00 49 1008.9
20260510151532 28 72 3.2 8.0 0.00 0.00 0.00 50 1008.9
20260510151031 28 109 3.2 6.4 0.00 0.00 0.00 50 1008.8
20260510150530 27 306 0.0 4.8 0.00 0.00 0.00 52 1008.8
20260510150030 27 359 1.6 6.4 0.00 0.00 0.00 52 1008.8
20260510145527 27 6 1.6 6.4 0.00 0.00 0.00 54 1008.8
20260510145026 26 3.2 0.0 0.00 0.00 0.00 56 1008.8
20260510143559 26 46 1.6 6.4 0.00 0.00 0.00 56 1008.7
20260510143059 26 76 1.6 6.4 0.00 0.00 0.00 57 1008.8
20260510142558 25 335 3.2 6.4 0.00 0.00 0.00 58 1008.7
20260510142058 25 277 1.6 4.8 0.00 0.00 0.00 58 1008.7
20260510141558 25 344 0.0 4.8 0.00 0.00 0.00 59 1008.8
20260510141101 25 9 1.6 4.8 0.00 0.00 0.00 60 1008.9
20260510140601 24 309 0.0 4.8 0.00 0.00 0.00 61 1008.8
20260510140058 23 309 0.0 4.8 0.00 0.00 0.00 62 1008.8
20260510135558 23 300 0.0 6.4 0.00 0.00 0.00 63 1008.8
20260510135057 23 300 1.6 8.0 0.00 0.00 0.00 64 1008.7
20260510134658 22 274 6.4 11.3 0.00 0.00 0.00 65 1008.7
20260510133515 22 279 6.4 12.9 0.00 0.00 0.00 65 1008.6
20260510133017 22 276 8.0 12.9 0.00 0.00 0.00 65 1008.6
20260510132515 22 275 6.4 11.3 0.00 0.00 0.00 65 1008.5
20260510132015 22 294 6.4 12.9 0.00 0.00 0.00 66 1008.5
20260510131515 22 285 8.0 12.9 0.00 0.00 0.00 66 1008.5
20260510131014 21 273 8.0 11.3 0.00 0.00 0.00 66 1008.4
20260510130514 21 297 6.4 11.3 0.00 0.00 0.00 67 1008.5
20260510130017 21 281 6.4 14.5 0.00 0.00 0.00 67 1008.3
20260510125512 21 278 8.0 14.5 0.00 0.00 0.00 68 1008.3
20260510125012 20 279 8.0 9.7 0.00 0.00 0.00 69 1008.3
20260510123543 20 272 8.0 9.7 0.00 0.00 0.00 69 1008.1
20260510123043 20 281 6.4 11.3 0.00 0.00 0.00 70 1008.1
20260510122544 20 262 6.4 11.3 0.00 0.00 0.00 70 1007.9
20260510122041 20 309 6.4 11.3 0.00 0.00 0.00 69 1007.9
20260510121541 20 287 8.0 12.9 0.00 0.00 0.00 70 1007.9
20260510121040 20 276 4.8 12.9 0.00 0.00 0.00 69 1007.8
20260510120538 20 279 4.8 11.3 0.00 0.00 0.00 69 1007.9
20260510120038 20 266 9.7 11.3 0.00 0.00 0.00 69 1007.5
20260510115537 20 275 1.6 8.0 0.00 0.00 0.00 68 1007.4
20260510115036 21 8.0 0.0 0.00 0.00 0.00 68 1007.3
20260510113519 21 276 8.0 11.3 0.00 0.00 0.00 68 1007.1
20260510113027 21 272 6.4 11.3 0.00 0.00 0.00 68 1007.1
20260510112527 21 276 6.4 11.3 0.00 0.00 0.00 68 1007.0
20260510112020 21 268 9.7 12.9 0.00 0.00 0.00 68 1007.1
20260510111523 21 276 6.4 9.7 0.00 0.00 0.00 68 1007.0
20260510111016 21 286 4.8 9.7 0.00 0.00 0.00 68 1006.9
20260510110516 21 274 4.8 8.0 0.00 0.00 0.00 68 1007.0
20260510110014 21 286 4.8 9.7 0.00 0.00 0.00 68 1006.9
20260510105514 21 283 6.4 9.7 0.00 0.00 0.00 68 1006.8
20260510105021 22 6.4 0.0 0.00 0.00 0.00 66 1006.8
20260510103521 22 258 4.8 9.7 0.00 0.00 0.00 67 1006.7
20260510103024 22 256 1.6 8.0 0.00 0.00 0.00 66 1006.6
20260510102520 22 280 0.0 0.0 0.00 0.00 0.00 66 1006.5
20260510102019 22 294 0.0 0.0 0.00 0.00 0.00 66 1006.6
20260510101520 22 357 0.0 0.0 0.00 0.00 0.00 66 1006.5
20260510101019 22 2 0.0 0.0 0.00 0.00 0.00 65 1006.6
20260510100523 22 2 0.0 0.0 0.00 0.00 0.00 65 1006.6
20260510100016 22 316 0.0 0.0 0.00 0.00 0.00 65 1006.6
20260510095516 22 316 0.0 0.0 0.00 0.00 0.00 65 1006.6
20260510095014 22 0.0 0.0 0.00 0.00 0.00 64 1006.5
20260510093521 22 316 0.0 0.0 0.00 0.00 0.00 64 1006.3
20260510093020 22 316 0.0 0.0 0.00 0.00 0.00 64 1006.3
20260510092520 22 316 0.0 0.0 0.00 0.00 0.00 64 1006.4
20260510092020 22 316 0.0 0.0 0.00 0.00 0.00 63 1006.3
20260510091540 23 316 0.0 0.0 0.00 0.00 0.00 63 1006.2
20260510091019 23 316 0.0 0.0 0.00 0.00 0.00 63 1006.0
20260510090518 23 316 0.0 0.0 0.00 0.00 0.00 63 1006.0
20260510090018 23 316 0.0 0.0 0.00 0.00 0.00 63 1006.1
20260510085518 23 315 0.0 0.0 0.00 0.00 0.00 63 1006.1
20260510085016 23 0.0 0.0 0.00 0.00 0.00 62 1006.1
20260510084616 23 316 0.0 0.0 0.00 0.00 0.00 62 1006.2
20260510083041 23 316 0.0 0.0 0.00 0.00 0.00 62 1006.3
20260510082540 23 316 0.0 0.0 0.00 0.00 0.00 62 1006.2
20260510082040 23 316 0.0 0.0 0.00 0.00 0.00 62 1006.3
20260510081544 23 316 0.0 0.0 0.00 0.00 0.00 62 1006.3
20260510081039 23 321 0.0 0.0 0.00 0.00 0.00 62 1006.3
20260510080538 23 360 0.0 0.0 0.00 0.00 0.00 62 1006.3
20260510080040 23 360 0.0 0.0 0.00 0.00 0.00 61 1006.4
20260510075536 23 360 0.0 0.0 0.00 0.00 0.00 61 1006.4
20260510075036 23 0.0 0.0 0.00 0.00 0.00 60 1006.4
20260510073040 23 356 0.0 0.0 0.00 0.00 0.00 60 1006.6
20260510072535 24 356 0.0 0.0 0.00 0.00 0.00 60 1006.6
20260510072036 24 355 0.0 0.0 0.00 0.00 0.00 60 1006.7
20260510071539 24 328 0.0 0.0 0.00 0.00 0.00 60 1006.7
20260510071033 24 324 0.0 3.2 0.00 0.00 0.00 59 1006.7
20260510070533 24 324 1.6 9.7 0.00 0.00 0.00 59 1006.8
20260510070043 24 10 1.6 9.7 0.00 0.00 0.00 59 1006.7
20260510065531 24 18 4.8 8.0 0.00 0.00 0.00 58 1006.8
20260510065029 25 0.0 0.0 0.00 0.00 0.00 56 1006.8
20260510064628 25 39 4.8 8.0 0.00 0.00 0.00 56 1006.9
20260510063517 25 39 4.8 8.0 0.00 0.00 0.00 56 1006.9
20260510063020 25 27 4.8 6.4 0.00 0.00 0.00 56 1007.0
20260510062516 25 66 0.0 0.0 0.00 0.00 0.00 55 1007.1
20260510062015 26 66 0.0 0.0 0.00 0.00 0.00 55 1007.2
20260510061524 26 66 0.0 0.0 0.00 0.00 0.00 55 1007.2
20260510061012 26 84 0.0 4.8 0.00 0.00 0.00 54 1007.2
20260510060512 26 118 0.0 4.8 0.00 0.00 0.00 54 1007.3
20260510060025 26 110 1.6 6.4 0.00 0.00 0.00 54 1007.3
20260510055510 26 114 3.2 6.4 0.00 0.00 0.00 54 1007.3
20260510055008 26 105 8.0 9.7 0.00 0.00 0.00 53 1007.4
20260510054608 26 115 6.4 14.5 0.00 0.00 0.00 53 1007.4
20260510053029 26 108 8.0 12.9 0.00 0.00 0.00 53 1007.4
20260510052529 26 109 4.8 11.3 0.00 0.00 0.00 52 1007.6
20260510052028 26 144 1.6 8.0 0.00 0.00 0.00 51 1007.6
20260510051528 26 144 4.8 11.3 0.00 0.00 0.00 50 1007.7
20260510051026 26 148 4.8 9.7 0.00 0.00 0.00 50 1007.7
20260510050525 26 169 4.8 8.0 0.00 0.00 0.00 50 1007.7
20260510050026 27 152 3.2 14.5 0.00 0.00 0.00 50 1007.6
20260510045526 27 109 8.0 14.5 0.00 0.00 0.00 50 1007.5
20260510045025 27 0.0 0.0 0.00 0.00 0.00 49 1007.5
20260510044625 27 149 8.0 14.5 0.00 0.00 0.00 49 1007.5
20260510043058 27 123 6.4 12.9 0.00 0.00 0.00 48 1007.7
20260510042557 27 132 4.8 8.0 0.00 0.00 0.00 48 1007.7
20260510042059 27 139 4.8 9.7 0.00 0.00 0.00 47 1007.7
20260510041610 27 144 4.8 9.7 0.00 0.00 0.00 47 1007.7
20260510041057 27 144 3.2 9.7 0.00 0.00 0.00 46 1007.6
20260510040601 27 143 6.4 9.7 0.00 0.00 0.00 46 1007.6
20260510040057 27 141 4.8 9.7 0.00 0.00 0.00 45 1007.5
20260510035557 27 137 4.8 9.7 0.00 0.00 0.00 45 1007.6
20260510035057 27 149 8.0 9.7 0.00 0.00 0.00 45 1007.6
20260510034656 27 151 4.8 8.0 0.00 0.00 0.00 43 1007.6
20260510033050 27 163 3.2 9.7 0.00 0.00 0.00 42 1007.3
20260510032549 28 155 6.4 14.5 0.00 0.00 0.00 41 1007.4
20260510032049 28 154 8.0 14.5 0.00 0.00 0.00 40 1007.1
20260510031557 28 133 9.7 14.5 0.00 0.00 0.00 40 1007.1
20260510031049 28 134 8.0 14.5 0.00 0.00 0.00 39 1007.0
20260510030549 28 125 8.0 16.1 0.00 0.00 0.00 38 1006.9
20260510030056 28 139 8.0 16.1 0.00 0.00 0.00 37 1006.9
20260510025549 28 140 8.0 11.3 0.00 0.00 0.00 36 1006.8
20260510025053 30 0.0 0.0 0.00 0.00 0.00 30 1006.8
20260510023013 30 152 6.4 12.9 0.00 0.00 0.00 29 1006.6
20260510022513 30 148 6.4 9.7 0.00 0.00 0.00 29 1006.5
20260510022012 31 162 6.4 8.0 0.00 0.00 0.00 28 1006.3
20260510021514 31 146 3.2 12.9 0.00 0.00 0.00 27 1006.2
20260510021012 31 150 4.8 12.9 0.00 0.00 0.00 27 1006.3
20260510020513 31 117 4.8 12.9 0.00 0.00 0.00 27 1006.0
20260510020012 31 83 6.4 12.9 0.00 0.00 0.00 26 1006.0
20260510015516 32 114 8.0 14.5 0.00 0.00 0.00 26 1005.9
20260510015111 32 124 8.0 14.5 0.00 0.00 0.00 25 1005.9
20260510013029 32 125 6.4 14.5 0.00 0.00 0.00 24 1005.5
20260510012531 32 122 8.0 17.7 0.00 0.00 0.00 24 1005.4
20260510012030 32 95 11.3 17.7 0.00 0.00 0.00 24 1005.5
20260510011528 33 90 9.7 17.7 0.00 0.00 0.00 24 1005.4
20260510011028 33 148 8.0 17.7 0.00 0.00 0.00 23 1005.4
20260510010529 33 121 8.0 17.7 0.00 0.00 0.00 23 1005.5
20260510010029 33 56 4.8 17.7 0.00 0.00 0.00 22 1005.4
20260510005529 33 75 9.7 17.7 0.00 0.00 0.00 22 1005.4
20260510005027 33 0.0 0.0 0.00 0.00 0.00 21 1005.4
20260510003012 33 110 11.3 17.7 0.00 0.00 0.00 21 1005.2
20260510002612 33 119 12.9 17.7 0.00 0.00 0.00 20 1005.1
20260510002010 34 158 9.7 16.1 0.00 0.00 0.00 20 1005.2
20260510001510 34 108 1.6 16.1 0.00 0.00 0.00 20 1005.1
20260510001008 34 133 8.0 14.5 0.00 0.00 0.00 20 1005.1
20260510000508 34 119 1.6 12.9 0.00 0.00 0.00 19 1005.1
20260510000008 34 137 4.8 12.9 0.00 0.00 0.00 19 1005.2
20260509235507 34 160 4.8 14.5 0.00 0.00 0.00 18 1005.1
20260509235106 34 131 8.0 11.3 0.00 0.00 0.00 19 1005.3
20260509233503 35 138 9.7 14.5 0.00 0.00 0.00 19 1005.1
20260509233007 35 59 4.8 14.5 0.00 0.00 0.00 20 1005.0
20260509232503 35 100 8.0 16.1 0.00 0.00 0.00 19 1005.1
20260509232002 35 45 4.8 16.1 0.00 0.00 0.00 20 1005.2
20260509231501 35 169 6.4 16.1 0.00 0.00 0.00 19 1005.4
20260509231100 35 193 6.4 17.7 0.00 0.00 0.00 18 1005.3
20260509230600 35 125 9.7 17.7 0.00 0.00 0.00 20 1005.3
20260509230509 35 145 11.3 17.7 0.00 0.00 0.00 20 1005.3
20260509230105 35 105 9.7 16.1 0.00 0.00 0.00 20 1005.2
20260509225557 35 129 6.4 16.1 0.00 0.00 0.00 20 1005.3
20260509225057 35 111 4.8 17.7 0.00 0.00 0.00 19 1005.4
20260509224557 35 127 8.0 20.9 0.00 0.00 0.00 18 1005.5
20260509224055 35 144 14.5 20.9 0.00 0.00 0.00 20 1005.5
20260509223552 35 193 8.0 16.1 0.00 0.00 0.00 20 1005.5
20260509223155 35 148 4.8 17.7 0.00 0.00 0.00 22 1005.5
20260509222552 35 137 11.3 17.7 0.00 0.00 0.00 22 1005.7
20260509222048 35 140 8.0 17.7 0.00 0.00 0.00 22 1005.6
20260509221546 35 123 11.3 17.7 0.00 0.00 0.00 23 1005.6
20260509220058 35 132 9.7 17.7 0.00 0.00 0.00 24 1005.9
20260509215558 35 100 8.0 17.7 0.00 0.00 0.00 23 1005.9
20260509215057 35 79 12.9 17.7 0.00 0.00 0.00 24 1005.8
20260509214556 35 143 4.8 12.9 0.00 0.00 0.00 24 1005.8
20260509214054 34 245 0.0 14.5 0.00 0.00 0.00 21 1005.8
20260509213554 34 104 6.4 20.9 0.00 0.00 0.00 20 1005.9
20260509213053 35 116 12.9 20.9 0.00 0.00 0.00 22 1006.0
20260509212551 34 127 6.4 16.1 0.00 0.00 0.00 24 1006.1
20260509212050 34 118 4.8 16.1 0.00 0.00 0.00 27 1006.1
20260509211552 33 130 4.8 19.3 0.00 0.00 0.00 30 1006.1
20260509210034 33 117 4.8 19.3 0.00 0.00 0.00 30 1006.5
20260509205530 33 54 6.4 17.7 0.00 0.00 0.00 29 1006.7
20260509205031 33 76 4.8 14.5 0.00 0.00 0.00 30 1006.7
20260509204533 33 77 6.4 17.7 0.00 0.00 0.00 30 1006.7
20260509204032 33 113 6.4 14.5 0.00 0.00 0.00 33 1006.7
20260509203526 33 129 6.4 14.5 0.00 0.00 0.00 34 1006.8
20260509203034 32 47 3.2 17.7 0.00 0.00 0.00 33 1006.9
20260509202524 32 122 9.7 17.7 0.00 0.00 0.00 35 1006.8
20260509202023 32 100 8.0 17.7 0.00 0.00 0.00 34 1007.0
20260509201522 32 144 8.0 17.7 0.00 0.00 0.00 38 1007.0
20260509200039 32 126 9.7 17.7 0.00 0.00 0.00 38 1007.3
20260509195541 32 95 6.4 14.5 0.00 0.00 0.00 39 1007.5
20260509195037 32 66 4.8 16.1 0.00 0.00 0.00 40 1007.5
20260509194535 31 136 1.6 16.1 0.00 0.00 0.00 41 1007.5
20260509194034 31 121 4.8 12.9 0.00 0.00 0.00 43 1007.5
20260509193534 31 95 3.2 17.7 0.00 0.00 0.00 43 1007.6
20260509193034 31 81 9.7 17.7 0.00 0.00 0.00 46 1007.6
20260509192531 31 119 6.4 19.3 0.00 0.00 0.00 47 1007.7
20260509192030 30 152 8.0 19.3 0.00 0.00 0.00 47 1007.8
20260509191529 30 90 11.3 16.1 0.00 0.00 0.00 49 1007.9
20260509190107 30 112 9.7 14.5 0.00 0.00 0.00 51 1008.3
20260509185550 30 148 4.8 12.9 0.00 0.00 0.00 51 1008.3
20260509185049 29 27 6.4 12.9 0.00 0.00 0.00 52 1008.4
20260509184555 29 95 6.4 14.5 0.00 0.00 0.00 53 1008.5
20260509184048 29 95 9.7 14.5 0.00 0.00 0.00 53 1008.8
20260509183548 28 100 0.0 17.7 0.00 0.00 0.00 56 1008.8
20260509183048 28 104 9.7 17.7 0.00 0.00 0.00 56 1009.2
20260509182547 28 20 6.4 16.1 0.00 0.00 0.00 56 1009.3
20260509182046 28 100 6.4 12.9 0.00 0.00 0.00 56 1009.2
20260509181546 28 151 6.4 17.7 0.00 0.00 0.00 57 1009.3
20260509180100 28 144 4.8 17.7 0.00 0.00 0.00 57 1009.5
20260509175549 27 159 4.8 14.5 0.00 0.00 0.00 59 1009.5
20260509175048 27 156 4.8 14.5 0.00 0.00 0.00 60 1009.7
20260509174551 27 78 6.4 14.5 0.00 0.00 0.00 60 1009.8
20260509174046 27 125 0.0 14.5 0.00 0.00 0.00 61 1009.9
20260509173546 26 129 4.8 17.7 0.00 0.00 0.00 62 1009.9
20260509173056 26 90 6.4 16.1 0.00 0.00 0.00 62 1009.9
20260509172545 26 108 9.7 16.1 0.00 0.00 0.00 62 1010.0
20260509172043 26 151 4.8 16.1 0.00 0.00 0.00 64 1010.0
20260509171548 26 112 9.7 16.1 0.00 0.00 0.00 64 1010.2
20260509170019 26 131 9.7 16.1 0.00 0.00 0.00 64 1010.3
20260509165517 26 131 1.6 12.9 0.00 0.00 0.00 65 1010.3
20260509165017 25 171 4.8 14.5 0.00 0.00 0.00 65 1010.3